| time (UTC) | temp F | wind direction | speed MPH | gust MPH | rain 1hr in | rain 24hr in | rain mn in | humidity % | barometer mb |
| 20260503022922 | 75 | 137 | 3.0 | 5.0 | 0.03 | 0.00 | 0.00 | 93 | 1012.0 |
| 20260503022821 | 75 | 137 | 3.0 | 5.0 | 0.03 | 0.00 | 0.00 | 93 | 1012.0 |
| 20260503020921 | 76 | 137 | 3.0 | 5.0 | 0.03 | 0.00 | 0.00 | 93 | 1012.0 |
| 20260503020820 | 76 | 137 | 3.0 | 5.0 | 0.03 | 0.00 | 0.00 | 93 | 1012.0 |
| 20260503014920 | 77 | 137 | 3.0 | 5.0 | 0.03 | 0.00 | 0.00 | 93 | 1012.0 |
| 20260503014819 | 77 | 137 | 3.0 | 5.0 | 0.03 | 0.00 | 0.00 | 93 | 1012.0 |
| 20260503012919 | 78 | 137 | 3.0 | 6.0 | 0.03 | 0.00 | 0.00 | 93 | 1011.0 |
| 20260503012819 | 78 | 137 | 3.0 | 6.0 | 0.03 | 0.00 | 0.00 | 93 | 1011.0 |
| 20260503010918 | 74 | 30 | 1.0 | 3.0 | 0.03 | 0.00 | 0.00 | 92 | 1011.0 |
| 20260503010818 | 74 | 30 | 1.0 | 3.0 | 0.03 | 0.00 | 0.00 | 92 | 1011.0 |
| 20260503004916 | 75 | 30 | 1.0 | 3.0 | 0.03 | 0.00 | 0.00 | 92 | 1011.0 |
| 20260503004816 | 75 | 30 | 1.0 | 3.0 | 0.03 | 0.00 | 0.00 | 92 | 1011.0 |
| 20260503002915 | 76 | 30 | 1.0 | 3.0 | 0.02 | 0.00 | 0.00 | 92 | 1011.0 |
| 20260503002815 | 76 | 30 | 1.0 | 3.0 | 0.02 | 0.00 | 0.00 | 92 | 1011.0 |
| 20260503000911 | 77 | 30 | 1.0 | 3.0 | 0.02 | 0.00 | 0.00 | 92 | 1011.0 |
| 20260503000811 | 77 | 30 | 1.0 | 3.0 | 0.02 | 0.00 | 0.00 | 92 | 1011.0 |
| 20260502234910 | 78 | 30 | 2.0 | 3.0 | 0.04 | 0.00 | 0.00 | 92 | 1010.0 |
| 20260502234810 | 78 | 30 | 2.0 | 3.0 | 0.04 | 0.00 | 0.00 | 92 | 1010.0 |
| 20260502234434 | 78 | 30 | 2.0 | 3.0 | 0.04 | 0.00 | 0.00 | 92 | 1010.0 |
| 20260502234334 | 78 | 30 | 2.0 | 3.0 | 0.04 | 0.00 | 0.00 | 92 | 1010.0 |
| 20260502232433 | 75 | 10 | 3.0 | 5.0 | 0.06 | 0.00 | 0.00 | 89 | 1010.0 |
| 20260502232333 | 75 | 10 | 3.0 | 5.0 | 0.06 | 0.00 | 0.00 | 89 | 1010.0 |
| 20260502230432 | 76 | 10 | 3.0 | 5.0 | 0.09 | 0.00 | 0.00 | 89 | 1010.0 |
| 20260502230332 | 76 | 10 | 3.0 | 5.0 | 0.09 | 0.00 | 0.00 | 89 | 1010.0 |
| 20260502224431 | 77 | 10 | 3.0 | 5.0 | 0.13 | 0.00 | 0.00 | 89 | 1009.0 |
| 20260502224331 | 77 | 10 | 3.0 | 5.0 | 0.13 | 0.00 | 0.00 | 89 | 1009.0 |
| 20260502222430 | 78 | 10 | 3.0 | 5.0 | 0.28 | 0.00 | 0.00 | 89 | 1009.0 |
| 20260502222330 | 78 | 10 | 3.0 | 5.0 | 0.28 | 0.00 | 0.00 | 89 | 1009.0 |
| 20260502220430 | 79 | 10 | 3.0 | 5.0 | 0.08 | 0.00 | 0.00 | 89 | 1009.0 |
| 20260502220329 | 79 | 10 | 3.0 | 5.0 | 0.08 | 0.00 | 0.00 | 89 | 1009.0 |
| 20260502214429 | 80 | 10 | 3.0 | 6.0 | 0.09 | 0.00 | 0.00 | 89 | 1009.0 |
| 20260502214328 | 80 | 10 | 3.0 | 6.0 | 0.09 | 0.00 | 0.00 | 89 | 1009.0 |
| 20260502212428 | 77 | 329 | 5.0 | 7.0 | 0.09 | 0.00 | 0.00 | 76 | 1009.0 |
| 20260502212327 | 77 | 329 | 5.0 | 7.0 | 0.09 | 0.00 | 0.00 | 76 | 1009.0 |
| 20260502210427 | 78 | 329 | 5.0 | 7.0 | 0.09 | 0.00 | 0.00 | 76 | 1009.0 |
| 20260502210326 | 78 | 329 | 5.0 | 7.0 | 0.09 | 0.00 | 0.00 | 76 | 1009.0 |
| 20260502204426 | 79 | 329 | 5.0 | 7.0 | 0.03 | 0.00 | 0.00 | 76 | 1008.0 |
| 20260502204326 | 79 | 329 | 5.0 | 7.0 | 0.03 | 0.00 | 0.00 | 76 | 1008.0 |
| 20260502202425 | 80 | 329 | 5.0 | 7.0 | 0.03 | 0.00 | 0.00 | 76 | 1009.0 |
| 20260502202325 | 80 | 329 | 5.0 | 7.0 | 0.03 | 0.00 | 0.00 | 76 | 1009.0 |
| 20260502200424 | 81 | 329 | 5.0 | 7.0 | 0.00 | 0.00 | 0.00 | 76 | 1009.0 |
| 20260502200324 | 81 | 329 | 5.0 | 7.0 | 0.00 | 0.00 | 0.00 | 76 | 1009.0 |
| 20260502194423 | 82 | 329 | 5.0 | 7.0 | 0.00 | 0.00 | 0.00 | 76 | 1009.0 |
| 20260502194323 | 82 | 329 | 5.0 | 7.0 | 0.00 | 0.00 | 0.00 | 76 | 1009.0 |
| 20260502192422 | 83 | 329 | 5.0 | 7.0 | 0.00 | 0.00 | 0.00 | 76 | 1009.0 |
| 20260502192322 | 83 | 329 | 5.0 | 7.0 | 0.00 | 0.00 | 0.00 | 76 | 1009.0 |
| 20260502190421 | 84 | 329 | 5.0 | 7.0 | 0.00 | 0.00 | 0.00 | 76 | 1009.0 |
| 20260502190321 | 84 | 329 | 5.0 | 7.0 | 0.00 | 0.00 | 0.00 | 76 | 1009.0 |
| 20260502184421 | 85 | 329 | 5.0 | 7.0 | 0.00 | 0.00 | 0.00 | 76 | 1009.0 |
| 20260502184320 | 85 | 329 | 5.0 | 7.0 | 0.00 | 0.00 | 0.00 | 76 | 1009.0 |
| 20260502182420 | 86 | 329 | 5.0 | 7.0 | 0.00 | 0.00 | 0.00 | 76 | 1009.0 |
| 20260502182320 | 86 | 329 | 5.0 | 7.0 | 0.00 | 0.00 | 0.00 | 76 | 1009.0 |
| 20260502180419 | 87 | 329 | 5.0 | 7.0 | 0.00 | 0.00 | 0.00 | 76 | 1009.0 |
| 20260502180319 | 87 | 329 | 5.0 | 7.0 | 0.00 | 0.00 | 0.00 | 76 | 1009.0 |
| 20260502170416 | 90 | 329 | 6.0 | 7.0 | 0.00 | 0.00 | 0.00 | 76 | 1011.0 |
| 20260502170316 | 90 | 329 | 6.0 | 7.0 | 0.00 | 0.00 | 0.00 | 76 | 1011.0 |
| 20260502164315 | 81 | 354 | 4.0 | 5.0 | 0.00 | 0.00 | 0.00 | 82 | 1010.0 |
| 20260502162414 | 82 | 354 | 4.0 | 5.0 | 0.00 | 0.00 | 0.00 | 82 | 1011.0 |
| 20260502162314 | 82 | 354 | 4.0 | 5.0 | 0.00 | 0.00 | 0.00 | 82 | 1011.0 |
| 20260502160414 | 83 | 354 | 4.0 | 5.0 | 0.00 | 0.00 | 0.00 | 82 | 1010.0 |
| 20260502160313 | 83 | 354 | 4.0 | 5.0 | 0.00 | 0.00 | 0.00 | 82 | 1010.0 |
| 20260502152311 | 85 | 354 | 4.0 | 5.0 | 0.00 | 0.00 | 0.00 | 82 | 1011.0 |
| 20260502150411 | 86 | 354 | 4.0 | 6.0 | 0.00 | 0.00 | 0.00 | 82 | 1011.0 |
| 20260502150310 | 86 | 354 | 4.0 | 6.0 | 0.00 | 0.00 | 0.00 | 82 | 1011.0 |
| 20260502130405 | 77 | 21 | 3.0 | 5.0 | 0.00 | 0.00 | 0.00 | 88 | 1010.0 |
| 20260502130305 | 77 | 21 | 3.0 | 5.0 | 0.00 | 0.00 | 0.00 | 88 | 1010.0 |
| 20260502122403 | 79 | 90 | 0.0 | 1.0 | 0.00 | 0.00 | 0.00 | 88 | 1009.0 |
| 20260502122305 | 79 | 90 | 0.0 | 1.0 | 0.00 | 0.00 | 0.00 | 88 | 1009.0 |
| 20260502120402 | 80 | 90 | 0.0 | 1.0 | 0.00 | 0.00 | 0.00 | 88 | 1009.0 |
| 20260502120301 | 80 | 90 | 0.0 | 1.0 | 0.00 | 0.00 | 0.00 | 88 | 1009.0 |
| 20260502114401 | 81 | 90 | 0.0 | 1.0 | 0.00 | 0.00 | 0.00 | 88 | 1009.0 |
| 20260502114301 | 81 | 90 | 0.0 | 1.0 | 0.00 | 0.00 | 0.00 | 88 | 1009.0 |
| 20260502112400 | 73 | 32 | 1.0 | 1.0 | 0.00 | 0.00 | 0.00 | 83 | 1009.0 |
| 20260502112300 | 73 | 32 | 1.0 | 1.0 | 0.00 | 0.00 | 0.00 | 83 | 1009.0 |
| 20260502110359 | 74 | 32 | 1.0 | 1.0 | 0.00 | 0.00 | 0.00 | 83 | 1009.0 |
| 20260502110259 | 74 | 32 | 1.0 | 1.0 | 0.00 | 0.00 | 0.00 | 83 | 1009.0 |
| 20260502104358 | 75 | 32 | 1.0 | 1.0 | 0.00 | 0.00 | 0.00 | 83 | 1009.0 |
| 20260502104258 | 75 | 32 | 1.0 | 1.0 | 0.00 | 0.00 | 0.00 | 83 | 1009.0 |
| 20260502102357 | 76 | 32 | 1.0 | 1.0 | 0.00 | 0.00 | 0.00 | 83 | 1008.0 |
| 20260502102257 | 76 | 32 | 1.0 | 1.0 | 0.00 | 0.00 | 0.00 | 83 | 1008.0 |
| 20260502100356 | 77 | 32 | 1.0 | 1.0 | 0.00 | 0.00 | 0.00 | 83 | 1008.0 |
| 20260502100256 | 77 | 32 | 1.0 | 1.0 | 0.00 | 0.00 | 0.00 | 83 | 1008.0 |
| 20260502090354 | 80 | 32 | 1.0 | 2.0 | 0.01 | 0.00 | 0.00 | 83 | 1008.0 |
| 20260502090253 | 80 | 32 | 1.0 | 2.0 | 0.01 | 0.00 | 0.00 | 83 | 1008.0 |
| 20260502070349 | 74 | 46 | 1.0 | 3.0 | 0.17 | 0.00 | 0.00 | 89 | 1009.0 |
| 20260502070248 | 74 | 46 | 1.0 | 3.0 | 0.17 | 0.00 | 0.00 | 89 | 1009.0 |
| 20260502064348 | 75 | 46 | 1.0 | 3.0 | 0.23 | 0.00 | 0.00 | 89 | 1008.0 |
| 20260502064248 | 75 | 46 | 1.0 | 3.0 | 0.23 | 0.00 | 0.00 | 89 | 1008.0 |
| 20260502062347 | 76 | 46 | 1.0 | 3.0 | 0.13 | 0.00 | 0.00 | 89 | 1009.0 |
| 20260502062247 | 76 | 46 | 1.0 | 3.0 | 0.13 | 0.00 | 0.00 | 89 | 1009.0 |
| 20260502060346 | 77 | 46 | 1.0 | 3.0 | 0.14 | 0.00 | 0.00 | 89 | 1009.0 |
| 20260502060246 | 77 | 46 | 1.0 | 3.0 | 0.14 | 0.00 | 0.00 | 89 | 1009.0 |
| 20260502054345 | 78 | 46 | 1.0 | 3.0 | 0.15 | 0.00 | 0.00 | 89 | 1008.0 |
| 20260502054245 | 78 | 46 | 1.0 | 3.0 | 0.15 | 0.00 | 0.00 | 89 | 1008.0 |
| 20260502052344 | 79 | 46 | 1.0 | 3.0 | 0.04 | 0.00 | 0.00 | 89 | 1009.0 |
| 20260502052244 | 79 | 46 | 1.0 | 3.0 | 0.04 | 0.00 | 0.00 | 89 | 1009.0 |
| 20260502050344 | 80 | 46 | 1.0 | 3.0 | 0.01 | 0.00 | 0.00 | 89 | 1009.0 |
| 20260502050243 | 80 | 46 | 1.0 | 3.0 | 0.01 | 0.00 | 0.00 | 89 | 1009.0 |
| 20260502044343 | 81 | 46 | 1.0 | 3.0 | 0.00 | 0.00 | 0.00 | 89 | 1009.0 |
| 20260502044243 | 81 | 46 | 1.0 | 3.0 | 0.00 | 0.00 | 0.00 | 89 | 1009.0 |
| 20260502042342 | 82 | 46 | 1.0 | 3.0 | 0.00 | 0.00 | 0.00 | 89 | 1009.0 |
| 20260502042242 | 82 | 46 | 1.0 | 3.0 | 0.00 | 0.00 | 0.00 | 89 | 1009.0 |
| 20260502040341 | 83 | 46 | 1.0 | 3.0 | 0.00 | 0.00 | 0.00 | 89 | 1009.0 |
| 20260502040241 | 83 | 46 | 1.0 | 3.0 | 0.00 | 0.00 | 0.00 | 89 | 1009.0 |
| 20260502034341 | 84 | 46 | 2.0 | 3.0 | 0.00 | 0.00 | 0.00 | 89 | 1009.0 |
| 20260502034240 | 84 | 46 | 2.0 | 3.0 | 0.00 | 0.00 | 0.00 | 89 | 1009.0 |
| 20260502032339 | 75 | 353 | 1.0 | 5.0 | 0.00 | 0.00 | 0.00 | 90 | 1010.0 |
| 20260502032239 | 75 | 353 | 1.0 | 5.0 | 0.00 | 0.00 | 0.00 | 90 | 1010.0 |
| 20260502030337 | 76 | 353 | 1.0 | 5.0 | 0.00 | 0.00 | 0.00 | 90 | 1009.0 |
| 20260502030237 | 76 | 353 | 1.0 | 5.0 | 0.00 | 0.00 | 0.00 | 90 | 1009.0 |
| 20260502024336 | 77 | 353 | 1.0 | 5.0 | 0.00 | 0.00 | 0.00 | 90 | 1009.0 |
| 20260502024236 | 77 | 353 | 1.0 | 5.0 | 0.00 | 0.00 | 0.00 | 90 | 1009.0 |